Regional Weather Roundup
Issued by NWS

Home | Current Version | Previous Version | Text Only | Print | Product List | Glossary On
Versions: 1 2 3 4 5 6 7 8 9 10 11 12 13 14 15 16 17 18 19 20 21 22 23 24 25 26 27 28 29 30 31 32 33 34 35 36 37 38 39 40 41 42 43 44 45 46 47 48 49 50
000
ASHW40 PHFO 192033
RWRHI

WEATHER ROUNDUP FOR HAWAII
NATIONAL WEATHER SERVICE HONOLULU HI
1000 AM HST MON FEB 19 2018

THIS IS AN AUTOMATED REPORT THAT HAS NOT BEEN QUALITY CONTROLLED.

NOTE..."FAIR" INDICATES FEW OR NO CLOUDS BELOW 12,000 FEET WITH NO
SIGNIFICANT WEATHER AND/OR OBSTRUCTIONS TO VISIBILITY.

* - THESE SITES REPORT LIMITED FIELDS
# - BUOY DATA PROVIDED BY PACIFIC ISLANDS OCEAN OBSERVING SYSTEM.

HIZ001>004-192100-
KAUAI-NIIHAU-

CITY           SKY/WX    TMP DP  RH WIND       PRES   REMARKS
LIHUE APT      MOSUNNY   73  67  81 N10       30.00S
PORT ALLEN*      N/A     73 N/A N/A SE2         N/A
POIPU*           N/A     73 N/A N/A NE5         N/A
PRINCEVILLE*     N/A     73 N/A N/A S1          N/A
KOKOLE POINT*  NOT AVBL
MOLOAA DAIRY*    N/A     72  66  83 CALM        N/A
WAIMEA HTS*    NOT AVBL
PUU OPAE*      NOT AVBL
PUU LUA*       NOT AVBL
MAKAHA RIDGE*    N/A    N/A N/A N/A VRB1        N/A
$$

HIZ005>011-192100-
OAHU-

CITY           SKY/WX    TMP DP  RH WIND       PRES   REMARKS
HONOLULU       MOSUNNY   76  61  59 SE7       29.98R
KALAELOA       SUNNY     77  61  57 VRB3      29.99R
KANEOHE MCB    MOSUNNY   73  65  75 NW3       29.97R
WHEELER FIELD  FAIR      73  60  65 CALM      30.01S
BELLOWS*         N/A    N/A N/A N/A N3          N/A
KAHUKU*          N/A    N/A N/A N/A E5          N/A
WHEELER*       NOT AVBL
WAIANAE HARBOR NOT AVBL
DILLINGHAM*    NOT AVBL
KAHUKU TRN*      N/A     70  59  68 NW5G13      N/A
KAWAILOA*        N/A     72  57  60 NE6         N/A
KII*             N/A     73  64  73 E6          N/A
MAKUA RANGE*     N/A     63  46  55 E3G9        N/A
OAHU FOREST NW NOT AVBL
SCHOFIELD BRK*   N/A     73  55  53 MISG        N/A
SCHOFIELD S*   NOT AVBL
WAIANAE VLY*   NOT AVBL
KUAOKALA*      NOT AVBL
HONOULIUULI*   NOT AVBL
MOKUOLOE IS*   NOT AVBL
PALEHUA*       NOT AVBL
WAIAWA PHB*    NOT AVBL
$$

HIZ012>013-192100-
MOLOKAI-

CITY           SKY/WX    TMP DP  RH WIND       PRES   REMARKS
MOLOKAI AIRPT  MOSUNNY   75  60  59 NE7G16    29.99R
KALAUPAPA      NOT AVBL
MAKAPULAPAI*     N/A     75  63  64 E12         N/A
MOLOKAI 1*     NOT AVBL
PUU ALII*        N/A     75  54  47 VRB1        N/A
$$

HIZ016-192100-
KAHOOLAWE-

CITY           SKY/WX    TMP DP  RH WIND       PRES   REMARKS
KAHOOLAWE*     NOT AVBL
HAKIOAWA*        N/A     72  63  72 MISG      30.39S
HONOKANAIA*    NOT AVBL
KANELOA*         N/A     70  59  68 NE14G20   30.03R
KEALIALALO*    NOT AVBL
LUA MAKIKA*    NOT AVBL
$$

HIZ014>015-192100-
LANAI-

CITY           SKY/WX    TMP DP  RH WIND       PRES   REMARKS
LANAI CITY     FAIR      72  58  61 NE9       30.02R
LANAI 1*       NOT AVBL
$$

HIZ017>028-192100-
MAUI-

CITY           SKY/WX    TMP DP  RH WIND       PRES   REMARKS
KAHULUI        MOSUNNY   74  66  76 NE8       30.00R
KAPALUA-W MAUI MOSUNNY   72  66  83 NE13      30.00
HANA AIRPORT   SUNNY     73  32  21 NW8       30.01F
HANA*            N/A     73 N/A N/A NW5         N/A
HALEAKALA SUMM   N/A     37  32  81 W23         N/A  WCI  26
MAALAEA BAY*     N/A     75 N/A N/A NE13        N/A
HALEAKALA*     NOT AVBL
KAUPO GAP*     NOT AVBL
KULA 1*          N/A     56  41  58 W3          N/A
$$

HIZ023>026-192100-
BIG ISLAND OF HAWAII COAST AND LOWER SLOPES-

CITY           SKY/WX    TMP DP  RH WIND       PRES   REMARKS
KAILUA KONA    MOSUNNY   77  60  55 NW6       29.96R
HILO           MOSUNNY   76  65  68 NW8       29.98S
HONOKAA*         N/A     68 N/A N/A VRB1        N/A
KAWAIHAE MWT*    N/A     79 N/A N/A SW7         N/A
KAWAIHAE*        N/A     75 N/A N/A SW6       29.95S
SOUTH POINT*     N/A     73 N/A N/A N9          N/A
UPOLU AIRPORT* NOT AVBL
KAMUELA*       CLEAR     72  54  53 SW5       30.06S
HAKALAU*         N/A     58  50  75 NE5G10      N/A
KALOKO-HONOKO*   N/A     81  64  57 W5        29.96S
PALI 2*          N/A     70  64  83 N7          N/A
KEALAKOMO*       N/A     81  59  47 E3G16       N/A
KAUPULEHU*     NOT AVBL
KAPAPALA*        N/A     74  63  68 S3          N/A
LOWER KAHUKU*    N/A     66  57  72 S1          N/A
PUHE CS*         N/A     79  63  57 S2          N/A
PUHO CS*         N/A     77  64  63 NW3         N/A
PTA KEAMUKU*     N/A     70  54  56 W8          N/A
WAIKOLOA*      NOT AVBL
$$

HIZ027>028-192100-
BIG ISLAND OF HAWAII INTERIOR AND SUMMMITS-

CITY           SKY/WX    TMP DP  RH WIND       PRES   REMARKS
BRADSHAW FIELD SUNNY     63  38  40 W3        30.26R
MK VISITOR CEN   N/A     46  32  57 W12         N/A
MAUNA KEA*       N/A     23  23 100 SW45        N/A  WCI   2
MAUNA LOA*       N/A    N/A N/A N/A MISG        N/A
MAUNA LOA 1*   NOT AVBL
PTA KIPUKA*      N/A     46  34  61 E5G10       N/A
PTA RANGE 17*    N/A    N/A N/A N/A E5          N/A
PTA WEST*        N/A     66  48  52 NW6G12      N/A
NENE CABIN*      N/A     57  39  51 SW7G14      N/A
AHUMOA*        NOT AVBL
PTA PORTABLE*  NOT AVBL
PUU MALI*        N/A     55 N/A N/A NW3G12      N/A
$$

HIC003-192100-
NORTHWEST ISLANDS-

CITY           SKY/WX    TMP DP  RH WIND       PRES   REMARKS
MIDWAY ISLAND  MOSUNNY   70  63  78 SE14      30.13R
MIDWAY NOS*      N/A     70 N/A N/A MISG      30.11R
FRENCH FRIGATE NOT AVBL
$$

PHZ110>124-180-192100-
BUOY REPORTS

STATION/POSITION TIME  TEMP    WIND        PRES    WAVE   SWELL
                       AIR SEA DIR/SP/G            HT/PER HT/DIR
                 (UTC) (F)     (DEG/KT/KT) (MB)    (FT/S) (FT/D)
BUOY 51001       2010   76 77   80/ 14/ 16 1013.1
BUOY 51101       1950   71 73   20/ 14/ 17 1017.4R   8/10   7/ 70
BUOY 51100       NOT AVBL
BUOY 51002       2010   76 77   80/ 10/ 12 1013.9
BUOY 51003       1950   75 77   70/  8/ 10 1014.6R   7/11   7/ 20
BUOY 51004       2010   75 77   40/  4/  8 1014.5
WAIMEA BAY#      2002      71                N/A     7/ 9   3/330
MOKAPU POINT#    2004      74                N/A     6/ 9   2/ 20
LANAI#           NOT AVBL
BARBERS PT 2#    NOT AVBL
PAUWELA#         2000      75                N/A     8/ 9   3/330
HILO#            1957      75                N/A     7/ 9   3/ 40
KANEOHE BAY#     NOT AVBL
KANEOHE BAY 2#   NOT AVBL
HANALEI#         1952      75                N/A     7/15   3/310
KAHULUI HARBOR   2000   72 77  360/  7/  8 1015.4
HONOLULU HARBOR  2000   73 74  260/  3/  3 1014.7
PEARL HARBOR#    1900      75                N/A     3/ 6
KILO NALU        NOT AVBL
HILO HARBOR      2000   72 75  350/  7/  9 1014.8
MOKUOLOE         1936   69 73  310/  2/  2 1015.5R
NAWILIWILI       2000   72 76   30/  7/ 10 1015.5
WHOTS BUOY       NOT AVBL
BUOY 51028       NOT AVBL
$$

......................KEY........................................
  SKY/WX - SKY CONDITIONS/PRESENT WEATHER
  TMP    - TEMPERATURE IN FAHRENHEIT
  DWPT   - DEWPOINT IN FAHRENHEIT
  RH     - RELATIVE HUMIDITY IN PERCENT
  WIND   - DIRECTION AND SPEED /MPH FOR ISLANDS...KTS FOR BUOYS/
  PRES   - MEAN SEA LEVEL PRESSURE IN INCHES OF HG
  VSB    - VISIBILITY IN MILES
  HX     - HEAT INDEX
  WCI    - WIND CHILL INDEX
  VRB    - VARIABLE WIND DIRECTION
  N/A    - NOT AVAILABLE



USA.gov is the U.S. government's official web portal to all federal, state and local government web resources and services.